Tiempo Historia de Montague, CA

Change the Weather History Date:

Viernes, Marzo 9, 2012

  Actual Average Record
Temperature  
Temperatura media 47 ° F 43 ° F  
Temperatura máxima 71 ° F 56 ° F 73 ° F (1972)
Temperatura mínima 22 ° F 30 ° F 12 ° F (1974)
Degree Days  
Grados día de calefacción 18 22  
Month to date heating degree days 230 203  
Since 1 July heating degree days 4140 4080  
Cooling Degree Days 0 0  
Month to date cooling degree days 0 0  
Year to date cooling degree days 0 0  
Moisture  
Punto de rocío 23 ° F    
Average Humidity 46    
Maximum Humidity 85    
Minimum Humidity 13    
Precipitación  
Precipitación 0.00 pul 0.07 pul 0.66 pul (1954)
Month to date precipitation 0.02 0.76  
Year to date precipitation 2.89 4.97  
Presión al nivel del mar  
Presión al nivel del mar 30.25 pul    
Viento  
Velocidad del viento 8 mph (SSE)    
Velocidad máxima del viento 24 mph    
Max Gust Speed 29 mph    
Visibilidad 10 Millas    
Eventos      
T = Trace of Precipitation, MM = Missing Value Source: NWS Daily Summary

Daily Weather History Graph

Daily Weather History Graph

Search for Another Location

Airport:

Trip Planner

Search our weather history database for the weather conditions in past years. The results will help you decide how hot, cold, wet, or windy it might be!

Date:

Astronomía

Mar. 09, 2012 Salida Puesta
Hora real 6:30 AM PST 6:10 PM PST
Crepúsculo civil 6:03 AM PST 6:38 PM PST
Crepúsculo náutico 5:30 AM PST 7:10 PM PST
Crepúsculo astronómico 4:58 AM PST 7:42 PM PST
Luna 8:19 PM PST (3/9) 6:50 AM PST (3/9)
Horas de luz 12h 35m
Horas de luz
11h 39m
Luna llena, 97% of the Moon is Illuminated
Mar 9
Luna llena
Mar 14
Cuarto menguante
Mar 22
Nueva
Mar 30
Cuarto creciente
Abr 6
Luna llena

Hourly Weather History & Observations

Hora (PST) Temp. Vientos helados Punto de rocío Humedad Presión Visibilidad Wind Dir Velocidad del viento Velocidad de ráfagas Precip Eventos Condiciones
12:53 AM 28.9 ° F - 23.0 ° F 78% 30.39 pul 10.0 mi Sin viento Sin viento - N/A   Despejado
1:53 AM 27.0 ° F 21.6 ° F 21.0 ° F 78% 30.39 pul 10.0 mi NNE 4.6 mph - N/A   Despejado
2:53 AM 30.9 ° F - 25.0 ° F 79% 30.37 pul 10.0 mi Sin viento Sin viento - N/A   Despejado
3:53 AM 28.9 ° F 22.8 ° F 24.1 ° F 82% 30.37 pul 10.0 mi Variable 5.8 mph 25.3 mph N/A   Despejado
4:53 AM 28.9 ° F 20.4 ° F 24.1 ° F 82% 30.37 pul 10.0 mi NE 9.2 mph - N/A   Despejado
5:53 AM 30.0 ° F - 25.0 ° F 82% 30.38 pul 10.0 mi Sin viento Sin viento - N/A   Despejado
6:53 AM 26.1 ° F - 21.9 ° F 84% 30.40 pul 10.0 mi Sin viento Sin viento - N/A   Despejado
7:53 AM 33.1 ° F - 26.1 ° F 75% 30.39 pul 10.0 mi Sin viento Sin viento - N/A   Despejado
8:53 AM 41.0 ° F - 27.0 ° F 57% 30.39 pul 10.0 mi Sin viento Sin viento - N/A   Despejado
9:53 AM 48.9 ° F - 27.0 ° F 43% 30.36 pul 10.0 mi NNO 4.6 mph - N/A   Despejado
10:53 AM 55.0 ° F - 27.0 ° F 34% 30.33 pul 10.0 mi Sin viento Sin viento - N/A   Despejado
11:53 AM 60.1 ° F - 25.0 ° F 26% 30.30 pul 10.0 mi Variable 3.5 mph - N/A   Despejado
12:53 PM 64.0 ° F - 24.1 ° F 22% 30.25 pul 10.0 mi Variable 3.5 mph - N/A   Despejado
1:53 PM 68.0 ° F - 21.9 ° F 17% 30.19 pul 10.0 mi Sur 6.9 mph - N/A   Despejado
2:53 PM 71.1 ° F - 17.1 ° F 13% 30.14 pul 10.0 mi SSO 16.1 mph 23.0 mph N/A   Despejado
3:53 PM 69.1 ° F - 19.0 ° F 15% 30.12 pul 10.0 mi Sur 20.7 mph - N/A   Despejado
4:53 PM 66.0 ° F - 19.0 ° F 17% 30.10 pul 10.0 mi Sur 21.9 mph - N/A   Despejado
5:53 PM 61.0 ° F - 19.9 ° F 21% 30.11 pul 10.0 mi Sur 20.7 mph - N/A   Despejado
6:53 PM 57.0 ° F - 19.9 ° F 24% 30.14 pul 10.0 mi Sur 19.6 mph - N/A   Despejado
7:53 PM 55.0 ° F - 21.0 ° F 27% 30.12 pul 10.0 mi Sur 18.4 mph - N/A   Despejado
8:53 PM 51.1 ° F - 19.9 ° F 29% 30.11 pul 10.0 mi SSE 13.8 mph - N/A   Despejado
9:53 PM 48.9 ° F - 21.0 ° F 33% 30.10 pul 10.0 mi SSE 3.5 mph - N/A   Despejado
10:53 PM 46.0 ° F 41.0 ° F 21.0 ° F 37% 30.08 pul 10.0 mi Sur 10.4 mph - N/A   Despejado
11:53 PM 46.9 ° F - 25.0 ° F 42% 30.06 pul 10.0 mi Sin viento Sin viento - N/A   Despejado